GEFSNGP_500_meanwind_168.txt.gz
Wind_Speed
29 30 31 30 29 28 27 26 24 21 20 18 19 18 18 16 15 14 14 13 13 12 13 13 13 13 14 15 15 16 17 17 17 18 18 18 18 19 20 20 21 22 22 22
30 30 30 30 29 28 27 25 23 21 20 18 19 19 18 16 15 15 14 13 13 12 13 13 12 12 13 14 15 16 17 17 18 18 18 18 19 20 20 21 21 22 23 23
31 31 31 31 29 27 27 26 23 22 19 18 18 19 18 17 16 15 14 14 13 13 12 13 12 12 13 12 13 15 16 17 17 18 18 19 19 19 19 20 21 21 23 23
31 32 33 29 28 27 26 24 22 21 20 19 17 18 17 17 16 16 16 16 15 14 13 12 12 12 12 13 14 14 15 16 16 16 18 18 18 19 19 19 20 20 20 21
33 34 32 30 28 27 26 24 22 21 20 19 18 17 17 17 17 16 15 15 15 14 13 13 13 13 13 13 14 15 15 16 17 17 17 17 18 18 18 19 19 20 20 21
34 34 33 29 27 27 26 24 22 21 20 19 18 18 17 17 17 16 16 16 16 16 15 14 15 15 14 14 14 15 16 16 17 17 17 17 18 18 19 19 20 20 21 21
34 34 32 29 28 27 26 23 23 22 20 20 19 18 18 18 17 17 16 16 16 16 16 16 16 16 16 16 16 17 17 17 17 17 17 18 19 19 19 19 20 21 21 21
34 34 32 28 28 27 25 24 23 22 21 20 20 19 19 18 17 17 17 17 17 17 17 16 16 16 17 18 18 18 19 18 18 18 19 19 20 20 20 20 20 21 21 21
32 32 30 28 27 26 24 24 23 22 21 20 20 19 18 17 18 18 18 17 18 18 18 17 18 18 19 19 20 20 20 20 20 20 20 20 21 21 22 21 21 22 22 22
30 30 30 27 26 25 24 23 23 22 21 21 20 18 17 17 18 18 17 18 18 18 18 18 18 18 18 19 19 20 21 21 22 23 22 22 22 21 21 21 22 23 23 24
29 28 28 27 26 24 23 23 23 24 22 21 21 20 19 18 18 18 17 18 18 18 18 19 19 19 19 19 19 19 20 21 22 23 23 23 23 23 22 22 23 23 23 24
29 29 28 26 25 23 24 23 22 22 22 20 21 21 21 19 19 19 18 18 17 17 18 19 19 20 21 21 21 21 21 22 22 22 23 24 24 24 24 24 24 24 24 25
28 27 27 26 25 23 23 22 22 22 21 21 21 22 21 20 19 19 19 18 17 17 18 18 19 20 20 21 21 21 22 23 23 24 24 23 23 24 24 25 25 26 26 27
28 27 26 26 25 23 22 22 22 22 22 21 21 22 21 20 19 20 19 18 17 17 18 18 18 18 19 19 19 20 21 21 22 22 22 23 23 24 26 27 27 27 28 28
26 26 25 25 24 23 22 22 22 22 22 21 21 21 20 20 20 20 19 18 17 17 17 17 18 18 17 17 18 18 19 21 21 21 22 22 23 24 25 26 27 27 27 28
23 23 24 23 22 21 21 21 21 21 20 20 20 19 18 18 18 18 18 17 17 17 16 16 16 17 17 17 17 17 18 18 19 19 20 21 22 23 24 25 27 27 28 30
21 22 22 23 21 21 20 20 19 19 18 18 17 17 16 16 16 16 17 17 17 17 16 16 16 17 17 17 18 17 18 18 19 20 21 22 23 23 24 25 26 28 29 30
20 20 21 22 21 21 20 20 19 18 18 18 17 16 15 15 16 16 16 16 16 16 16 17 17 17 18 18 18 19 19 20 20 21 21 22 23 24 25 26 27 28 29 30
20 20 21 21 21 21 20 20 20 19 18 17 17 16 16 15 15 15 15 15 15 16 16 16 17 18 18 19 20 20 20 20 20 21 22 23 24 25 26 27 28 29 31 31
19 19 19 19 19 19 18 18 18 18 17 16 16 16 16 16 15 15 15 15 15 16 16 16 17 17 18 19 20 21 21 21 21 22 23 24 25 26 27 28 29 30 30 31
17 18 18 17 17 17 17 17 16 16 16 15 15 15 15 15 15 16 16 16 16 16 16 17 17 18 18 19 19 20 21 21 22 23 23 24 25 26 27 28 29 29 30 31
17 17 17 17 17 16 15 15 15 14 14 15 14 14 14 15 15 15 16 16 16 17 18 18 18 18 19 19 20 20 21 22 23 23 24 25 26 26 27 28 29 29 30 31
17 17 17 16 17 16 15 14 14 14 14 14 14 14 14 15 15 15 15 15 16 17 17 17 18 18 19 19 20 20 21 22 22 23 24 25 26 27 27 28 28 29 30 31
15 15 14 14 14 14 14 13 13 14 14 14 14 14 14 14 14 15 15 16 16 16 17 17 18 18 19 20 20 21 22 22 23 24 24 25 26 27 28 28 29 30 31 32
14 13 13 13 13 12 12 12 12 13 13 13 13 14 14 14 14 14 15 15 16 16 17 17 18 19 20 20 21 22 22 23 24 25 25 26 27 28 28 29 30 31 32 33
14 13 13 12 12 11 11 11 12 12 12 12 12 13 14 14 14 15 15 15 16 17 18 18 18 19 20 20 21 22 23 24 24 25 26 26 27 28 29 30 31 32 33 34
13 13 12 12 11 11 10 10 11 11 11 11 12 12 13 13 14 15 15 16 17 18 19 19 19 20 21 22 23 23 24 25 25 26 27 28 28 29 30 31 32 33 34 35

GEFSNGP_500_meanwind_174.txt.gz
Wind_Speed
29 28 29 29 29 29 28 26 23 21 20 19 19 19 20 19 19 18 17 17 16 15 15 15 15 15 15 15 16 17 17 19 20 19 19 19 19 19 19 19 19 20 20 20
30 30 29 29 29 29 28 26 25 22 20 19 20 20 20 20 20 19 18 17 17 16 15 15 15 14 15 15 15 16 16 17 18 18 18 19 19 19 19 19 19 20 21 21
29 30 30 31 30 28 27 26 24 22 20 20 20 20 20 20 21 20 19 18 18 17 16 15 15 14 14 15 15 16 17 17 18 17 17 18 18 18 18 19 19 19 20 20
28 30 31 29 29 28 26 25 24 23 22 21 20 20 20 20 21 20 19 18 18 17 16 15 15 15 14 14 15 16 16 17 18 18 18 18 18 18 18 19 19 19 19 20
29 29 29 30 29 28 26 25 24 23 22 22 21 21 21 20 20 21 20 19 19 18 17 16 16 15 15 15 15 15 16 16 17 18 18 18 18 18 18 18 19 20 20 21
30 28 29 29 28 26 25 25 24 23 23 23 22 22 21 20 20 21 21 20 20 19 18 17 17 16 16 15 15 15 15 16 17 17 18 18 18 18 19 18 19 19 19 19
30 29 29 29 28 27 27 25 24 24 24 23 23 23 21 21 20 21 21 21 21 20 19 18 17 17 16 15 15 15 16 16 16 17 18 18 17 18 18 18 18 18 19 19
30 31 31 29 29 29 28 25 24 24 24 23 23 23 22 21 20 20 20 21 21 20 19 19 18 17 16 16 16 16 16 16 17 17 17 17 17 17 17 17 18 19 19 20
31 31 29 29 29 29 27 26 25 24 24 24 24 23 22 21 20 20 19 19 19 19 19 18 18 18 18 18 17 17 17 17 17 17 17 17 17 18 18 19 19 19 19 20
30 28 28 28 29 29 28 26 25 25 24 24 24 22 21 21 20 19 19 19 19 19 18 18 18 18 18 18 18 18 17 17 17 18 18 19 19 19 20 20 20 20 21 21
28 28 28 28 28 28 28 27 26 25 24 24 23 23 21 20 20 19 19 19 19 19 19 19 18 18 18 18 18 18 18 18 19 19 20 20 20 20 20 21 22 22 23 23
29 28 27 27 28 29 28 27 26 25 24 24 23 22 22 21 20 19 19 19 19 19 19 19 19 18 18 18 19 19 19 20 20 20 20 21 21 21 22 23 23 24 25 25
28 28 27 26 27 27 27 27 26 25 25 24 24 23 22 21 20 20 19 19 19 20 20 20 19 19 19 20 20 20 20 21 21 21 21 22 22 23 23 24 25 26 26 26
28 28 27 27 27 26 26 26 26 26 25 24 24 23 22 21 21 20 19 19 19 19 20 20 19 19 19 20 20 20 20 20 21 22 22 22 23 24 24 25 25 26 27 27
28 28 27 26 26 26 26 26 25 25 25 25 24 22 21 21 20 20 19 20 19 19 19 19 19 19 19 19 20 20 20 20 21 22 22 23 24 24 24 25 25 26 27 28
27 27 27 26 26 26 26 25 24 25 25 24 23 22 21 21 21 20 20 20 20 20 21 21 20 20 19 19 20 20 20 21 22 22 22 23 23 24 24 24 25 25 25 26
27 27 27 27 27 27 26 24 22 23 24 23 23 22 21 21 21 20 21 21 21 20 20 20 19 19 18 18 19 19 19 20 21 21 21 21 22 23 23 24 25 25 26 26
26 26 26 26 26 26 24 23 23 23 23 23 22 22 21 20 20 19 19 20 20 20 19 18 18 18 18 18 18 18 18 19 19 20 21 22 23 23 24 25 26 27 28 28
24 24 25 25 25 24 24 24 23 22 22 23 22 22 21 20 19 19 18 19 19 18 17 18 18 18 18 18 18 18 18 19 20 20 21 22 23 24 24 25 26 27 28 29
23 24 24 25 24 23 23 24 23 22 22 21 21 20 20 19 19 18 18 18 18 18 17 18 18 18 18 18 18 19 19 20 20 21 22 23 24 24 25 26 26 27 28 30
23 22 22 23 22 22 21 21 22 21 21 20 20 20 20 19 19 18 18 17 17 17 17 17 17 18 18 18 19 19 20 21 21 22 22 23 24 25 26 27 28 29 30 30
21 21 21 21 20 19 20 20 21 20 19 18 17 16 16 16 16 17 16 16 16 17 17 17 18 18 19 19 20 20 20 21 21 22 23 24 24 25 25 26 27 28 29 30
20 20 20 20 20 19 19 20 20 19 17 16 16 15 15 15 15 15 15 16 16 17 17 16 16 17 18 18 19 20 20 21 21 22 23 24 24 25 26 26 27 28 28 29
21 20 19 19 19 18 18 19 19 17 17 16 16 15 15 15 15 15 15 16 16 17 17 17 17 17 18 18 19 20 20 21 22 23 23 24 25 26 27 28 28 28 29 30
19 18 18 18 18 18 18 17 17 16 16 15 14 14 14 14 14 14 14 14 15 15 16 17 17 18 18 19 19 20 21 21 22 23 24 25 26 26 27 28 28 29 29 30
17 16 16 15 15 15 15 14 14 13 13 13 13 13 13 13 13 13 14 14 15 15 16 17 18 18 18 19 19 20 21 22 23 24 25 25 26 27 28 28 29 29 30 30
16 15 14 14 13 13 12 12 12 12 11 11 11 11 11 11 12 13 13 14 15 16 17 17 17 18 18 19 20 21 22 22 23 24 25 26 27 27 28 29 29 30 30 31

GEFSNGP_500_meanwind_180.txt.gz
Wind_Speed
30 27 25 25 26 29 30 29 26 23 22 21 17 16 18 19 20 20 20 19 19 19 17 17 17 17 16 16 15 14 14 14 15 16 16 17 17 16 16 16 16 16 17 17
32 30 27 26 26 26 28 28 27 26 23 23 22 19 21 21 21 21 19 19 19 18 17 17 17 16 16 15 15 14 14 15 16 17 17 17 17 17 17 17 16 16 16 18
32 30 28 28 26 25 27 28 28 28 25 24 22 22 23 23 23 23 20 20 19 19 18 18 17 16 16 15 15 14 14 15 15 16 17 17 17 17 17 16 16 16 16 18
32 32 31 27 25 26 27 29 30 30 28 27 26 25 25 25 25 23 22 20 20 19 18 18 17 17 16 16 15 14 15 14 14 15 15 16 17 17 17 17 17 18 18 17
31 31 31 29 28 28 30 31 32 31 30 28 27 27 27 26 23 22 21 20 20 20 19 18 18 17 17 15 15 15 14 14 14 15 15 15 16 17 17 18 18 17 16 17
32 31 29 28 29 30 31 32 32 32 31 29 29 28 26 24 24 22 21 21 20 20 19 18 18 17 16 16 15 14 14 15 15 15 16 16 16 16 17 17 17 18 17 17
33 32 29 28 29 29 32 33 32 32 32 31 31 28 26 24 24 22 21 21 21 20 19 18 18 18 17 16 16 15 15 15 15 15 16 16 16 17 17 17 18 18 17 17
34 34 32 30 29 30 31 29 31 31 31 32 31 28 26 25 24 22 21 20 20 20 19 19 18 18 17 17 16 16 16 15 15 15 15 16 17 17 18 18 18 18 18 18
36 36 35 32 32 31 29 29 30 31 31 30 29 27 26 25 23 21 21 20 20 20 20 19 19 18 18 18 17 17 17 16 15 15 15 15 16 17 17 18 18 18 18 19
35 34 34 31 32 31 30 30 30 31 31 28 28 27 24 24 22 22 21 20 20 21 20 20 20 19 18 18 18 18 17 17 16 16 16 16 16 17 17 18 19 19 19 20
35 34 34 31 31 29 29 30 29 28 28 27 25 24 24 23 22 21 21 21 21 20 20 20 20 19 19 19 19 18 18 17 17 17 17 17 17 17 18 19 19 20 21 22
33 33 32 30 32 31 30 30 29 28 28 27 26 25 24 23 22 21 21 21 21 21 20 20 20 20 19 19 18 18 18 18 18 18 18 18 18 19 20 20 21 22 23 23
32 30 30 30 30 30 29 29 29 29 28 26 25 25 24 23 22 21 21 21 21 21 20 20 19 19 19 19 19 19 19 19 19 19 19 19 19 20 21 21 22 23 23 24
33 31 30 30 30 30 29 28 28 27 27 26 25 25 24 23 22 21 21 21 21 21 21 21 20 19 19 19 19 19 19 19 20 20 20 20 20 21 22 23 23 24 24 25
31 31 30 29 30 30 30 29 28 27 27 26 26 25 24 23 22 21 21 21 21 20 20 20 20 20 20 20 20 20 20 20 21 21 21 22 22 22 23 23 24 24 24 25
28 28 28 28 28 29 29 28 28 28 27 27 26 25 24 24 23 22 22 21 21 20 20 20 20 20 20 20 20 20 21 21 21 21 21 22 22 22 23 23 24 24 24 25
28 27 27 27 28 29 28 28 27 27 27 27 26 25 24 23 23 22 22 21 20 20 20 20 20 20 20 20 20 20 20 20 21 21 21 21 22 22 23 23 24 24 25 26
27 28 27 27 27 28 28 28 27 26 26 25 25 25 24 23 23 22 21 21 21 20 20 19 19 20 21 21 20 20 20 21 21 21 21 21 21 22 23 24 25 26 27 27
27 27 28 27 26 27 27 26 26 25 25 24 24 24 22 22 21 21 20 21 21 20 20 20 19 20 21 20 21 21 20 20 20 21 21 22 22 23 24 25 26 27 28 28
26 26 26 25 25 24 25 25 25 25 25 24 23 22 21 21 21 21 21 21 21 21 21 21 21 21 21 21 20 21 20 19 20 21 22 22 23 23 24 25 25 26 27 27
25 25 25 24 23 22 23 23 24 24 24 23 23 22 21 21 21 20 20 20 20 20 21 21 21 21 21 22 22 22 22 22 21 22 22 23 23 24 24 25 26 26 27 28
23 24 24 24 23 22 21 21 21 21 21 21 20 20 20 20 20 20 19 19 19 19 19 20 20 21 22 22 22 22 22 21 22 22 22 23 23 24 24 25 26 27 28 29
22 23 24 24 23 22 22 21 20 20 19 18 18 18 19 18 18 18 18 18 17 17 18 18 19 19 19 20 20 20 20 20 21 22 22 23 23 24 25 26 27 27 28 29
20 21 21 21 21 20 19 19 19 19 19 18 18 18 18 17 17 17 17 17 17 16 16 16 16 16 17 17 17 17 18 19 20 21 22 23 24 25 26 27 28 29 29 30
19 20 20 21 20 20 19 18 17 18 17 17 17 17 17 17 17 16 16 16 15 15 15 15 15 16 16 16 17 17 18 20 21 22 23 24 25 26 27 28 29 29 30 30
17 18 19 20 19 19 18 17 16 16 16 16 16 15 15 15 14 14 14 14 14 14 15 15 15 16 16 16 17 18 20 21 22 23 24 25 26 27 28 28 29 29 30 31
16 16 16 17 17 17 16 16 16 15 15 15 15 15 14 14 14 14 14 14 14 14 14 15 15 16 16 17 19 20 21 22 23 24 25 25 26 27 28 28 29 30 31 32

GEFSNGP_500_meanwind_186.txt.gz
Wind_Speed
32 32 33 33 32 32 33 32 32 29 25 23 23 22 21 19 18 17 16 14 13 12 12 13 13 14 13 13 14 14 14 14 13 14 14 13 13 14 14 14 14 14 15 16
33 34 35 34 34 33 33 32 31 29 26 24 25 23 22 21 19 16 15 14 13 13 13 14 14 13 13 14 14 14 14 14 14 14 14 14 15 16 16 16 16 16 15 16
34 34 34 36 34 34 33 33 31 30 27 26 25 24 23 21 19 17 14 14 14 14 14 14 14 13 14 14 14 14 15 15 15 15 15 15 15 16 17 17 18 17 16 16
34 35 37 34 34 34 33 32 31 30 29 28 27 25 23 22 20 17 15 15 16 16 15 15 15 15 15 15 15 15 15 14 14 14 14 14 15 15 16 16 16 16 17 18
33 36 37 35 35 35 33 33 31 30 31 30 28 25 23 21 19 18 17 17 17 17 17 17 17 16 16 16 15 16 15 14 14 14 14 14 14 14 15 16 16 16 16 17
33 35 37 33 34 34 33 33 31 31 31 30 29 26 24 22 20 19 19 19 18 18 18 17 17 17 17 17 17 16 15 14 14 15 14 14 13 14 15 16 16 16 17 17
32 34 34 32 34 34 35 32 31 30 30 29 30 28 26 24 23 21 20 18 17 17 17 17 17 17 17 16 16 16 16 15 15 15 14 14 14 15 15 15 15 15 16 17
32 33 33 31 34 37 35 31 31 30 29 29 30 30 28 26 24 22 20 18 18 17 17 17 17 17 17 17 17 17 16 16 15 15 15 15 15 15 15 16 16 15 16 17
31 30 29 32 32 33 33 32 32 31 30 30 29 29 29 26 24 22 20 19 18 18 18 18 18 18 18 17 17 17 16 16 15 15 15 15 14 15 15 15 15 16 16 17
31 31 30 32 32 33 32 32 33 32 31 31 31 31 29 27 25 21 20 20 19 19 19 19 19 18 17 17 17 16 15 15 15 15 14 14 14 14 14 15 15 15 16 17
30 31 31 32 32 32 32 32 32 32 32 31 29 29 28 28 25 23 22 20 19 20 19 19 19 19 18 18 17 16 16 16 15 15 15 15 15 15 15 15 16 16 16 16
30 30 31 32 32 32 32 32 31 31 31 31 29 29 27 26 27 25 25 23 21 20 19 19 19 19 19 19 19 18 18 17 16 16 16 16 16 16 17 17 17 18 18 18
29 30 30 30 31 33 31 30 31 31 30 30 30 29 27 26 26 26 26 24 23 22 21 20 20 20 20 20 19 19 19 18 17 17 17 17 17 17 18 18 18 19 19 19
29 31 32 31 31 32 32 30 31 31 30 30 30 29 27 26 26 25 25 24 23 21 20 20 20 20 20 20 19 19 19 18 18 18 19 18 19 19 18 18 18 19 19 20
29 30 30 30 30 31 30 30 30 30 30 29 29 28 27 26 24 23 23 23 22 21 20 20 20 20 21 20 19 19 20 19 19 20 20 20 19 19 19 19 19 20 21 21
28 29 29 29 28 29 29 29 28 28 28 28 28 27 25 24 23 22 22 21 21 20 20 19 19 19 19 21 21 20 19 19 19 19 19 19 20 20 20 21 21 21 22 23
25 25 26 26 26 28 26 26 25 26 26 26 26 26 24 23 21 20 20 20 20 20 19 19 19 19 19 19 18 18 18 19 19 19 19 19 20 20 21 22 22 23 23 24
24 24 24 25 24 25 25 25 25 25 26 25 25 24 23 22 21 20 20 19 19 19 19 18 18 18 18 18 17 17 18 19 19 20 20 21 21 22 22 22 22 23 23 24
21 22 22 23 23 24 24 24 25 24 24 24 23 23 22 21 21 20 20 18 18 18 18 17 17 17 17 17 17 16 17 18 19 19 19 20 20 21 22 22 22 23 24 24
20 20 21 21 22 22 23 23 23 23 22 22 22 22 21 21 21 20 19 19 19 19 18 18 17 16 16 17 17 17 17 17 18 19 20 20 20 21 21 23 23 24 24 25
20 20 21 21 22 22 22 22 22 22 21 21 21 21 20 20 19 19 18 18 18 18 18 17 18 18 18 17 17 18 18 18 19 19 19 20 20 21 22 22 23 24 25 26
20 21 21 22 22 21 19 20 21 21 21 21 21 21 20 19 19 18 17 17 17 17 18 18 18 19 19 19 19 19 19 19 20 20 20 20 21 21 22 23 24 25 26 26
20 19 19 20 21 21 19 19 19 19 19 19 20 19 19 18 18 17 16 17 17 16 16 17 18 18 18 19 19 19 19 19 19 19 20 20 21 22 23 23 24 25 26 26
17 17 17 18 18 18 18 18 18 18 18 18 18 18 18 17 16 16 15 15 15 15 15 15 16 16 16 16 17 17 17 18 19 19 20 21 21 22 23 23 24 25 26 27
15 16 17 17 18 17 17 17 17 17 17 17 16 16 15 15 15 15 15 15 15 15 16 15 15 15 15 16 16 16 16 17 18 18 19 20 21 22 23 24 25 26 27 28
15 16 16 17 17 17 17 16 17 17 16 15 15 15 14 14 14 14 14 14 14 15 15 15 15 15 15 15 15 16 17 17 18 19 20 21 22 22 24 25 26 27 28 29
15 15 15 16 16 16 16 15 15 15 14 14 13 13 13 13 13 13 13 13 14 14 15 15 14 14 15 16 17 18 18 19 20 20 22 23 24 25 26 26 27 28 28 28